Regional Weather Roundup
Issued by NWS

Home | Current Version | Previous Version | Text Only | Print | Product List | Glossary Off
Versions: 1 2 3 4 5 6 7 8 9 10 11 12 13 14 15 16 17 18 19 20 21 22 23 24 25 26 27 28 29 30 31 32 33 34 35 36 37 38 39 40 41 42 43 44 45 46 47 48 49 50

146
ASUS43 KIND 271800
RWRIN

WEATHER ROUNDUP FOR INDIANA
NATIONAL WEATHER SERVICE INDIANAPOLIS IN
200 PM EDT SUN MAY 27 2018

NOTE: "FAIR" INDICATES FEW OR NO CLOUDS BELOW 12,000 FEET WITH NO
SIGNIFICANT WEATHER AND/OR OBSTRUCTIONS TO VISIBILITY.

* - STATION DOES NOT REPORT WEATHER SUCH AS PRECIPITATION OR FOG.

+ - STATION NOT QUALITY CONTROLLED BY THE NATIONAL WEATHER SERVICE.
    USE DATA WITH CAUTION...ESPECIALLY DEWPOINT AND RELATIVE
    HUMIDITY OBSERVATIONS.

INZ001>003-010>013-019-020-271900-
NORTHWEST INDIANA

CITY           SKY/WX    TMP DP  RH WIND       PRES   REMARKS
GARY /AIRPORT/ MOSUNNY   93  63  36 N10       29.88S HX  94
KNOX *+        FAIR      91  59  33 CALM      29.89S HX  90
MICHIGAN CITY+ FAIR      90  64  43 N7        29.90R HX  91
MONTICELLO +   FAIR      91  61  36 SE3       29.89S HX  91
6HR MIN TEMP:  70; 6HR MAX TEMP:  91;


$$

LMZ046-743>745-271900-
SOUTHERN LAKE MICHIGAN

STATION/POSITION TIME  TEMP    WIND        PRES    WAVE
                       AIR SEA DIR/SP/G            HT
                 (UTC) (F)     (DEG/KT/KT) (MB)    (FT)
BURNS HARBOR     1740   76      70/  6/  8 1012.5R
MICHIGAN CITY    1730   78      20/  6/  7   N/A
5NW MICH CITY    1750   77 73   40/  4/  6   N/A     0

$$

INZ004-005-014>016-021>024-271900-
NORTH CENTRAL INDIANA

CITY           SKY/WX    TMP DP  RH WIND       PRES   REMARKS
ELKHART        FAIR      95  63  34 N5        29.90S HX  96
GOSHEN         FAIR      91  61  36 W3        29.90S HX  91
6HR MIN TEMP:  70; 6HR MAX TEMP:  92;

SOUTH BEND     FAIR      87  64  46 W7        29.90S
6HR MIN TEMP:  71; 6HR MAX TEMP:  90;

WARSAW +       FAIR      88  64  45 W3        29.91S

$$

INZ006>009-017-018-025>027-271900-
NORTHEAST INDIANA

CITY           SKY/WX    TMP DP  RH WIND       PRES   REMARKS
ANGOLA *+      FAIR      90  63  40 SW9       29.90F HX  90
FORT WAYNE     FAIR      91  62  37 N5        29.91S HX  91
6HR MIN TEMP:  71; 6HR MAX TEMP:  92;

KENDALLVILLE + FAIR      87  56  34 NW5       29.92S

$$

INZ028-029-035-036-043>045-051>053-271900-
WEST CENTRAL INDIANA

CITY           SKY/WX    TMP DP  RH WIND       PRES   REMARKS
CRAWFORDSVL +  FAIR      88  63  43 CALM      29.91S
6HR MIN TEMP:  69; 6HR MAX TEMP:  88;

GREENCASTLE +  FAIR      90  63  40 CALM      29.91F HX  90
LAFAYETTE      FAIR      89  65  44 VRB3      29.89S HX  91
6HR MIN TEMP:  67; 6HR MAX TEMP:  90;

TERRE HAUTE    FAIR      93  66  40 NW8       29.89F HX  96
6HR MIN TEMP:  74; 6HR MAX TEMP:  93;


$$

INZ030>032-037>040-046>048-054>057-064-065-271900-
CENTRAL INDIANA

CITY           SKY/WX    TMP DP  RH WIND       PRES   REMARKS
GREENWOOD *+   FAIR      89  62  41 NE5       29.92F
INDIANAPOLIS   PTSUNNY   87  60  40 CALM      29.90F
6HR MIN TEMP:  72; 6HR MAX TEMP:  91;

-EAGLE CREEK   FAIR      90  63  40 W3        29.90F HX  91
6HR MIN TEMP:  72; 6HR MAX TEMP:  91;

KOKOMO +       FAIR      92  62  36 VRB3      29.92S HX  92
6HR MIN TEMP:  73; 6HR MAX TEMP:  92;

SHELBYVILLE    FAIR      91  64  40 NW6       29.90F HX  92
6HR MIN TEMP:  71; 6HR MAX TEMP:  91;


$$

INZ033-034-041-042-049-050-058-059-271900-
EAST CENTRAL INDIANA

CITY           SKY/WX    TMP DP  RH WIND       PRES   REMARKS
MUNCIE         FAIR      94  56  27 NE6       29.91F HX  92
6HR MIN TEMP:  74; 6HR MAX TEMP:  94;

RICHMOND +     FAIR      86  64  48 CALM      29.94S

$$

INZ060-061-067>069-081>083-085>088-271900-
SOUTHWEST INDIANA

CITY           SKY/WX    TMP DP  RH WIND       PRES   REMARKS
EVANSVILLE     FAIR      88  68  51 SE7       29.92S HX  91
6HR MIN TEMP:  73; 6HR MAX TEMP:  89;

HUNTINGBURG +  PTSUNNY   89  71  55 VRB6      29.92F HX  95
6HR MIN TEMP:  72; 6HR MAX TEMP:  89;


$$

INZ062-063-066-070>080-084-089>092-271900-
SOUTH CENTRAL AND SOUTHEAST INDIANA

CITY           SKY/WX    TMP DP  RH WIND       PRES   REMARKS
BLOOMINGTON    PTSUNNY   89  69  51 VRB3      29.92F HX  93
6HR MIN TEMP:  73; 6HR MAX TEMP:  90;

FRENCH LICK *+ FAIR      84  59  42 CALM      29.92F
SEYMOUR +      FAIR      88  68  51 CALM      29.91F HX  91

$$





USA.gov is the U.S. government's official web portal to all federal, state and local government web resources and services.